Flag for French Polynesia Weather past 2 weeks in Papeete, Tahiti, French Polynesia

Now
77 °F

Warm.


Feels Like: 78 °F
Forecast: 78 / 87 °F
Wind: 5 mph from East

Location: Tahiti-Faaa

Current Time: Mar 28, 2015 at 6:14:58 AM

Latest Report: Mar 28, 2015 at 5:30 AM


Visibility: N/A

Pressure: 29.89 "Hg

Humidity: 83%

Dew point: 72 °F

Location of PapeeteLocation

Historic Weather in Papeete — Graph

°F

Papeete temperature yesterday

Maximum temperature yesterday: 88 °F (at 3:00 PM)
Minimum temperature yesterday: 77 °F (at 2:00 AM)
Average temperature yesterday: 82 °F

Past Weeks' High & Low Weather Summary

 TemperatureHumidityPressure
High90 °F (Mar 17, 1:30 PM)94% (Mar 15, 2:30 AM)30.01 "Hg (Mar 15, 2:30 AM)
Low73 °F (Mar 17, 6:00 AM)52% (Mar 17, 12:00 PM)29.62 "Hg (Mar 15, 3:00 PM)
Average81 °F75%29.85 "Hg
* Reported Mar 13 5:00 AM — Mar 28 5:00 AM, Papeete, Weather by CustomWeather, © 2015

Note: Actual official high and low records may vary slightly from our data, if they occured in-between our weather recording intervals... More about our weather records

Advertising

Papeete weather history for previous 24 hours

 ConditionsComfort  
Time TempWeatherWind HumidityBarometerVisibility
5:00 AM
Sat, Mar 28
79 °FWarm.5 mph74%29.89 "HgN/A
4:30 AM79 °FWarm.5 mph79%29.89 "HgN/A
4:00 AM79 °FWarm.5 mph79%29.89 "HgN/A
3:30 AM79 °FWarm.5 mph79%29.89 "HgN/A
3:00 AM79 °FPassing clouds.5 mph79%29.89 "HgN/A
2:00 AM79 °FPassing clouds.5 mph79%29.89 "HgN/A
1:30 AM79 °FPassing clouds.3 mph79%29.89 "HgN/A
1:00 AM79 °FPassing clouds.3 mph79%29.89 "HgN/A
12:30 AM79 °FPassing clouds.5 mph79%29.92 "HgN/A
12:00 AM81 °FPassing clouds.3 mph74%29.92 "HgN/A
11:00 PM
Fri, Mar 27
81 °FPassing clouds.5 mph74%29.92 "HgN/A
10:30 PM81 °FPassing clouds.3 mph79%29.92 "HgN/A
10:00 PM81 °FPassing clouds.3 mph79%29.92 "HgN/A
9:30 PM81 °FPassing clouds.3 mph79%29.92 "HgN/A
9:00 PM82 °FPassing clouds.2 mph74%29.92 "HgN/A
8:30 PM82 °FPassing clouds.3 mph74%29.92 "HgN/A
8:00 PM82 °FPassing clouds.5 mph74%29.92 "HgN/A
7:30 PM82 °FPassing clouds.5 mph74%29.89 "HgN/A
7:00 PM82 °FPassing clouds.6 mph74%29.89 "HgN/A
6:30 PM82 °FScattered showers. Passing clouds.7 mph74%29.89 "HgN/A
6:00 PM84 °FScattered showers. Scattered clouds.8 mph70%29.86 "HgN/A
5:30 PM84 °FScattered clouds.8 mph74%29.86 "HgN/A
5:00 PM84 °FScattered clouds.8 mph70%29.86 "HgN/A
4:30 PM86 °FPartly sunny.7 mph70%29.86 "HgN/A
4:00 PM88 °FPartly sunny.8 mph66%29.86 "HgN/A
3:30 PM88 °FPassing clouds.8 mph66%29.83 "HgN/A
3:00 PM88 °FPassing clouds.8 mph66%29.83 "HgN/A
2:30 PM86 °FPassing clouds.9 mph66%29.86 "HgN/A
2:00 PM86 °FPassing clouds.9 mph66%29.86 "HgN/A
1:30 PM86 °FPassing clouds.9 mph70%29.86 "HgN/A
1:00 PM86 °FScattered clouds.9 mph70%29.86 "HgN/A
12:30 PM86 °FPassing clouds.9 mph66%29.89 "HgN/A
12:00 PM86 °FPassing clouds.8 mph66%29.89 "HgN/A
11:30 AM86 °FPassing clouds.7 mph70%29.89 "HgN/A
11:00 AM86 °FPassing clouds.7 mph70%29.92 "HgN/A
10:30 AM86 °FPassing clouds.5 mph66%29.92 "HgN/A
10:00 AM86 °FPassing clouds.3 mph70%29.92 "HgN/A
9:30 AM84 °FPassing clouds.5 mph70%29.92 "HgN/A
9:00 AM86 °FPassing clouds.2 mph70%29.92 "HgN/A
8:30 AM84 °FPassing clouds.2 mph74%29.92 "HgN/A
8:00 AM84 °FPassing clouds.No wind70%29.92 "HgN/A
7:30 AM82 °FPassing clouds.1 mph74%29.92 "HgN/A
7:00 AM81 °FPassing clouds.2 mph79%29.92 "HgN/A
6:30 AM79 °FPassing clouds.3 mph84%29.89 "HgN/A
6:00 AM77 °FPassing clouds.3 mph83%29.89 "HgN/A
Weather by CustomWeather, © 2015

See weather overviewHow to use our weather pages